Preview of NWS' New Version of Forecast
This preview is not operational and should not be used for support decisions.
Latest weather observations around

Casa Grande, Casa Grande Municipal Airport (KCGZ)

Using International System of Units (Switch to English Units)
Date/ Time (MST) Wind (kph) Vis. (km) Weather Sky Cond. Temp (°C) Rel. Humidity Wind Chill (°C) Heat Index (°C) Pressure Precip. (cm)
Air Dwpt 6 hour Altimeter (hPa) Sea level (hPa) 1 hr 3 hr 6 hr
Max Min
Sep 20 23:56 Calm 16.09 Clear CLR 23 2     26%   22 1011.2 1009.5      
Sep 20 21:56 Calm 16.09 Clear CLR 26 -1     18%   25 1010.5 1008.9      
Sep 20 20:56 NW 11 16.09 Clear CLR 27 2     20%   26 1009.8 1008.4      
Sep 20 19:56 W 13 16.09 Clear CLR 28 3     20%   27 1009.2 1007.9      
Sep 20 18:56 WNW 13 16.09 Clear CLR 31 3     17%   29 1008.5 1007.2      
Sep 20 17:56 W 17 14.48 Clear CLR 33 3     15%   31 1008.1 1006.6      
Sep 20 16:56 W 21 16.09 Clear   34 2     13%   32 1008.1 1006.5      
Sep 20 15:56 SW 17 16.09 Clear CLR 36 3     13%   33 1008.1 1006.5      
Sep 20 14:56 SSW 30 16.09 Clear   36 5     15%   34 1008.5 1006.8      
Sep 20 13:56   16.09 Clear CLR 36 4     14%   33 1009.2 1007.3      
Sep 20 13:30   16.09 Clear CLR 36 3     13%   33 1009.5        
Sep 20 12:56 ESE 15 16.09 Clear CLR 34 2     13%   31 1009.8 1008.3      
Sep 20 11:56 S 15 16.09 Clear CLR 33 2     14%   30 1010.8 1009.2      
Sep 20 10:56 8 16.09 Clear CLR 31 1     14%   29 1011.5 1009.8      
Sep 20 09:56 Calm 16.09 Clear CLR 29 3     19%   27 1011.5 1009.9      
Sep 20 08:56 Calm 16.09 Clear CLR 27 4     24%   26 1011.5 1009.9      
Sep 20 07:56 Calm 16.09 Clear CLR 24 8     36%   23 1011.2 1009.6      
Sep 20 06:56 Calm 16.09 Clear CLR 19 6     43%     1010.5 1009      
Sep 20 05:56 Calm 16.09 Clear CLR 17 6     46%     1009.5 1008      
Sep 20 03:56 Calm 16.09 Clear CLR 19 4     37%     1008.8 1007.2      
Sep 20 02:56 NW 8 16.09 Clear CLR 21 4     35%     1008.8 1007      
Sep 20 01:56 ENE 5 16.09 Clear CLR 22 3     30%   21 1008.8 1007.2      
Sep 20 00:56 Calm 16.09 Clear CLR 24 3     25%   23 1008.8 1007      
Sep 19 23:56 E 5 16.09 Clear CLR 25 3     24%   24 1008.1 1006.4      
Sep 19 21:56 WSW 9 16.09 Clear CLR 28 4     22%   27 1007.1 1005.3      
Sep 19 20:56 SW 15 16.09 Clear CLR 29 4     20%   27 1006.4 1004.9      
Sep 19 19:56 SSW 15 16.09 Clear CLR 31 4     18%   29 1006.1 1004.4      
Sep 19 18:56 SSW 17 16.09 Clear CLR 33 6     18%   31 1005.8 1004.1      
Sep 19 17:56 S 18 16.09 Clear CLR 36 5     15%   34 1005.4 1003.8      
Sep 19 16:56 SSW 30 16.09 Clear CLR 38 4     13%   35 1005.8 1004      
Sep 19 15:56 WSW 24 16.09 Clear CLR 38 3     12%   35 1005.8 1004      
Sep 19 14:56   16.09 Clear CLR 38 6     14%   35 1006.4 1004.6      
Sep 19 13:56 SW 32 16.09 Clear and Windy CLR 38 8     16%   36 1007.1 1005.4      
Sep 19 12:56 SSW 26 16.09 Clear CLR 37 9     18%   35 1008.1 1006.3      
Sep 19 11:56 SSW 28 16.09 Clear CLR 36 9     19%   34 1009.2 1007.2      
Sep 19 09:56 S 17 16.09 Clear CLR 33 10     25%   31 1010.8 1009      
Sep 19 08:56 SSE 13 16.09 Clear CLR 31 10     27%   30          
Sep 19 06:56 ENE 8 16.09 Clear CLR 22 8     42%   21 1010.8 1009.2      
Sep 19 05:56 Calm 16.09 Mostly Clear FEW110 24 10     41%   23 1010.2 1008.5      
Sep 19 03:56 Calm 16.09 Mostly Cloudy BKN110 24 9     37%   24 1010.2 1008.4      
Sep 19 02:56 Calm 16.09 Mostly Cloudy BKN110 24 9     37%   24 1010.2 1008.2      
Sep 19 00:56 S 9 16.09 Clear CLR 26 8     33%   25 1010.2 1008.4      
Sep 18 23:56 W 8 16.09 Clear CLR 27 8     30%   27 1009.8 1008.1      
Sep 18 21:56 W 11 16.09 Clear CLR 30 10     29%   29 1009.8 1008      
Sep 18 20:56 WNW 11 16.09 Clear CLR 32 9     25%   30 1009.5 1007.7      
Sep 18 18:56 W 11 16.09 Clear CLR 35 9     21%   33 1008.8 1007.1      
Sep 18 17:56 W 15 16.09 Clear CLR 37 11     20%   36 1008.8 1006.9      
Sep 18 16:56 W 11 16.09 Clear CLR 38 10     19%   36 1008.8 1007      
Sep 18 15:56 SW 22 16.09 Mostly Clear FEW120 38 10     18%   37 1009.2 1007.4      
Sep 18 14:56 S 21 16.09 Clear CLR 39 10     18%   37 1009.8 1007.9      
Sep 18 12:56 ESE 8 16.09 Clear CLR 36 13     25%   35 1011.5 1009.9      
Sep 18 11:56 S 11 16.09 Clear CLR 35 14     29%   34 1012.5 1010.7      
Sep 18 09:56 S 9 16.09 Clear CLR 32 16     38%   32 1013.6 1011.8      
Notice The following observation data may not be complete
Sep 18 08:56   16.09 Clear CLR          %              
Sep 18 06:56 E 8 16.09 Clear CLR 24 15     56%   24 1012.5 1011      
Sep 18 05:56 ENE 5 16.09 Clear CLR 23 15     60%   23 1012.2 1010.5      
Sep 18 03:56 Calm 16.09 Clear CLR 23 15     60%   23 1011.5 1009.9      
Sep 18 02:56 SSW 5 16.09 Clear CLR 25 15     54%   25 1011.5 1009.8      
Sep 18 00:56 Calm 16.09 Clear CLR 26 13     47%   25 1011.9 1010.1      
Sep 17 23:56 ESE 8 16.09 Clear CLR 27 13     42%   27 1011.5 1009.8      
Sep 17 22:56 Calm 16.09 Clear CLR 27 13     41%   27 1011.5 1009.7      
Sep 17 21:56 E 5 16.09 Clear CLR 30 14     37%   29 1011.2 1009.6      
May 14 20:56 SW 13 16.09 Clear CLR 28 -2     14%   26 1010.5 1009.2      
May 11 21:56 WSW 15 4.83 Haze CLR 27 3     22%   26 1007.1 1005.4      
May 11 20:56 SSW 24 6.44 Haze OVC031 29 -1     15%   27 1006.4 1004.8      
May 11 20:36 SSW 13 8.05 Haze BKN033 29 -1     14%   27 1006.1        
Jun 12 05:56 NNW 9 16.09 Clear CLR 19 0     28%     1012.2 1010.8      
Jun 11 21:56 S 15 16.09 Clear CLR 28 1     17%   27 1009.8 1008.1      
Jun 11 13:56 SW 21 16.09 Clear CLR 36 3     13%   33 1008.1 1006.2      
Jun 11 09:56 S 26 16.09 Clear CLR 32 3     16%   30 1009.5 1007.9      
Jun 09 23:56 Calm 16.09 Clear CLR 28 0     16%   27 1008.1 1006.3      
Jun 09 21:56 W 21 16.09 Clear CLR 33 -1     11%   30 1007.5 1005.5      
Jun 09 12:56 S 13 16.09 Clear CLR 38 2     11%   35 1009.5        
Jun 09 09:56 11 16.09 Clear CLR 34 2     13%   32 1011.2        
Notice The following observation data may not be complete
Jun 08 03:56     Clear            %              
Notice The following observation data may not be complete
Jun 08 02:56     Clear            %